Date,TemperatureHighF,TemperatureAvgF,TemperatureLowF,DewpointHighF,DewpointAvgF,DewpointLowF,HumidityHigh,HumidityAvg,HumidityLow,PressureMaxIn,PressureMinIn,WindSpeedMaxMPH,WindSpeedAvgMPH,GustSpeedMaxMPH,PrecipitationSumIn
2012-1-1,59.4,43.4,29.2,49.6,37.3,28.5,98,81,56,30.07,29.69,10,2,24,0.01
2012-1-3,20.6,20.4,20.1,18.3,17.9,17.5,91,90,89,30.12,30.11,2,2,6,0.00
2012-1-5,44.1,36.4,29.8,30.7,27.2,25.2,87,70,52,30.12,29.98,2,1,9,0.00
2012-1-6,62.8,47.2,30.3,35.6,31.3,26.3,85,56,33,29.99,29.83,3,1,12,0.00
2012-1-7,58.3,48.4,33.2,50.9,37.9,28.1,94,68,42,30.12,29.81,4,1,12,0.02
2012-1-8,47.4,34.3,25.5,33.4,28.7,24.0,96,81,55,30.32,30.13,2,0,6,0.00
2012-1-9,43.4,34.9,28.5,39.4,31.7,26.5,93,88,82,30.25,30.04,1,0,4,0.00
2012-1-10,49.9,35.5,25.6,35.1,31.0,24.6,98,85,53,30.12,29.97,3,0,9,0.00
2012-1-11,53.6,41.1,27.0,48.0,38.5,25.8,99,91,80,29.97,29.42,3,1,11,0.20
2012-1-12,49.4,45.7,29.8,46.8,43.7,27.8,96,93,81,29.59,29.35,6,1,17,0.09
2012-1-13,28.9,22.2,18.5,26.3,17.8,14.0,92,83,73,29.98,29.59,6,4,21,0.00
2012-1-14,29.9,24.5,20.4,22.5,19.7,16.9,92,82,67,30.19,30.09,2,1,10,0.01
2012-1-15,29.9,23.1,18.6,22.5,18.6,16.3,91,83,64,30.51,30.17,3,0,9,0.00
2012-1-16,55.3,28.1,15.5,33.2,19.6,13.6,94,77,31,30.45,30.14,5,1,12,0.02
2012-1-17,61.6,51.3,40.8,54.6,45.2,32.8,97,80,55,30.00,29.64,7,3,21,0.52
2012-1-18,40.4,30.6,25.0,33.4,22.7,17.4,85,73,58,30.20,29.93,5,2,19,0.00
2012-1-19,41.8,31.4,20.8,23.3,18.7,14.8,91,63,35,30.16,29.90,5,1,12,0.00
2012-1-20,38.7,32.8,28.4,37.9,27.4,23.0,97,81,62,30.20,29.85,3,1,7,0.05
2012-1-21,48.9,36.7,29.9,45.5,35.1,29.2,97,94,84,30.16,29.71,7,1,15,0.12
2012-1-22,54.1,39.9,29.6,42.0,34.8,28.3,98,83,61,30.22,30.01,6,1,10,0.01
2012-1-23,64.2,56.5,49.8,51.5,46.9,40.3,87,71,58,29.98,29.65,8,3,18,0.06
2012-1-24,54.1,46.0,35.0,39.7,36.3,30.7,84,70,53,30.31,29.93,4,2,12,0.00
2012-1-25,33.9,32.1,30.2,31.3,29.9,28.0,94,92,86,30.34,30.28,1,0,6,0.00
2012-1-26,63.1,49.6,40.9,56.0,47.3,37.0,99,92,77,30.10,29.45,4,0,10,0.27
2012-1-27,65.0,45.4,36.4,58.5,42.7,34.4,95,91,74,30.07,29.35,7,2,17,0.40
2012-1-28,44.5,37.6,31.2,39.8,30.0,17.6,96,76,46,30.25,29.96,7,2,22,0.02
2012-1-29,46.3,34.9,23.7,30.7,21.0,18.1,84,59,34,30.29,30.04,9,2,20,0.00
2012-1-30,53.6,38.7,22.0,28.7,23.2,18.1,90,56,37,30.38,30.18,4,1,12,0.00
2012-1-31,66.8,55.3,44.4,33.9,30.1,27.2,57,39,27,30.23,30.03,4,1,12,0.00
2012-2-1,59.5,57.8,51.0,40.0,32.6,29.8,66,39,33,30.08,30.02,4,2,11,0.02
2012-2-5,44.6,37.2,28.8,37.1,34.4,27.5,97,90,64,30.25,30.00,2,0,7,0.03
2012-2-6,49.3,35.8,25.6,37.6,30.7,24.6,98,83,54,30.26,30.10,2,0,7,0.00
2012-2-7,51.4,38.3,26.5,35.3,31.3,25.3,98,78,49,30.23,30.13,2,0,7,0.00
2012-2-8,33.3,31.8,29.8,32.3,30.3,28.0,96,94,90,30.26,30.14,3,0,9,0.08
2012-2-9,33.1,30.6,26.4,28.9,25.2,22.7,92,81,67,30.35,30.23,2,0,6,0.02
2012-2-10,36.8,31.5,28.2,30.9,28.4,25.1,97,88,72,30.23,29.92,1,0,6,0.03
2012-2-11,30.9,22.1,12.2,30.1,19.3,5.5,97,89,74,30.28,29.80,7,1,16,0.00
2012-2-12,15.3,14.2,13.5,11.9,10.1,7.0,90,84,76,30.29,30.26,4,1,10,0.00
2012-2-13,37.1,25.8,12.5,26.8,18.8,10.4,91,76,54,30.32,30.05,2,0,6,0.08
2012-2-14,46.7,36.9,30.1,38.6,32.2,26.0,95,84,59,30.07,29.90,4,1,10,0.02
2012-2-15,51.7,41.8,35.5,39.9,34.7,31.4,92,77,54,30.29,30.07,3,1,10,0.01
2012-2-16,52.0,47.7,44.1,48.7,44.2,35.0,98,88,61,30.09,29.94,5,1,15,0.14
2012-2-17,50.5,42.4,30.9,44.4,33.8,27.5,92,73,48,30.15,30.04,6,2,13,0.00
2012-2-18,55.9,38.5,25.3,36.1,28.7,24.1,96,72,40,30.11,29.95,6,1,13,0.00
2012-2-19,39.2,39.0,39.0,27.2,27.2,26.9,62,62,62,30.04,30.03,1,0,3,0.00
2012-2-21,54.7,41.4,23.7,39.7,29.8,21.4,92,66,44,30.21,29.83,6,2,18,0.00
2012-2-22,60.9,50.1,40.8,44.3,38.5,33.5,94,67,37,29.84,29.48,6,2,17,0.05
2012-2-23,58.0,50.4,44.3,47.5,43.1,41.1,94,77,56,29.62,29.35,2,1,7,0.09
2012-2-24,61.9,49.8,32.8,58.0,43.8,29.8,98,81,48,29.84,29.36,10,3,33,0.44
2012-2-25,33.9,30.6,24.4,30.4,22.2,17.6,94,72,57,30.38,29.83,8,3,22,0.00
2012-2-26,51.3,33.0,18.7,25.6,20.9,16.8,93,66,29,30.48,30.28,2,0,7,0.01
2012-2-27,64.6,48.7,27.7,38.8,32.1,24.1,90,57,36,30.34,30.19,6,2,15,0.00
2012-2-28,62.8,45.2,27.1,31.5,26.1,21.1,90,52,21,30.44,30.11,4,0,11,0.00
2012-2-29,66.5,56.4,40.8,60.9,51.7,31.8,97,85,57,30.11,29.61,5,1,17,1.41
2012-3-1,58.3,54.9,47.8,54.9,46.5,37.7,90,74,61,29.73,29.62,6,3,14,0.00
2012-3-2,59.1,39.9,30.7,47.1,36.8,29.7,98,89,54,29.87,29.66,4,1,10,0.10
2012-3-10,52.8,38.2,25.7,27.3,22.4,18.2,88,56,30,30.56,30.42,3,0,10,0.00
2012-3-11,70.4,48.6,27.8,38.7,31.1,25.1,91,58,26,30.47,30.27,3,1,7,0.00
2012-3-12,58.1,50.1,41.0,57.5,46.4,35.9,99,88,63,30.26,30.07,1,0,3,0.21
2012-3-13,76.4,64.9,54.8,59.7,56.1,52.8,99,75,50,30.09,29.98,3,1,12,0.01
2012-3-14,79.6,61.1,43.5,57.0,49.6,43.0,99,71,34,30.20,30.08,3,0,12,0.00
2012-3-15,66.5,56.0,46.1,55.6,50.1,44.7,96,82,62,30.25,30.10,3,0,10,0.04
2012-3-16,70.7,60.4,50.7,58.8,54.6,49.3,99,82,63,30.17,30.09,3,1,6,0.03
2012-3-17,57.1,54.7,53.1,53.4,52.7,51.7,95,93,89,30.15,30.13,0,0,0,0.00
2012-3-18,73.2,60.5,51.8,60.5,55.7,51.5,100,86,59,30.24,30.07,2,0,5,0.00
2012-3-19,79.6,65.6,56.8,64.7,59.9,55.0,99,83,57,30.15,30.02,6,1,14,1.20
2012-3-20,85.9,68.8,53.2,62.5,57.4,52.7,100,72,39,30.15,30.01,4,0,5,0.00
2012-3-21,86.2,68.7,52.6,60.5,56.7,51.7,98,69,36,30.16,30.00,4,1,7,0.00
2012-3-22,82.0,60.3,55.4,61.0,56.5,54.3,100,88,49,30.14,30.07,3,0,4,0.00
2012-3-23,83.5,67.2,52.6,66.7,57.5,51.2,96,74,45,30.02,29.80,5,1,14,0.06
2012-3-24,70.3,61.4,57.3,61.4,56.5,52.5,97,84,62,29.88,29.70,5,1,19,0.06
2012-3-25,66.7,59.2,52.9,56.7,54.2,52.0,99,84,69,29.88,29.72,5,1,14,0.01
2012-3-26,60.0,54.0,41.8,52.7,40.0,23.3,91,63,35,30.23,29.88,6,2,17,0.00
2012-3-27,65.3,47.1,30.5,30.3,22.8,18.2,75,43,19,30.34,30.07,2,1,7,0.00
2012-3-28,80.7,61.6,42.8,64.3,48.6,28.9,91,64,44,30.07,29.70,10,2,27,0.53
2012-3-29,66.2,56.8,47.6,50.2,42.4,38.8,81,60,40,29.97,29.80,4,1,14,0.00
2012-3-30,73.9,55.9,42.4,58.0,48.1,40.0,96,77,55,29.98,29.68,4,0,6,0.07
2012-3-31,69.6,57.4,48.9,57.1,52.0,44.3,97,83,58,29.87,29.69,7,2,15,0.00
2012-4-1,48.9,47.6,47.0,44.3,43.4,42.8,87,85,84,29.88,29.81,1,0,5,0.00
2012-4-4,75.1,62.7,53.3,59.5,51.9,43.4,88,69,52,29.77,29.63,5,1,18,0.00
2012-4-5,62.4,52.8,44.4,42.7,31.8,27.4,61,46,27,29.85,29.72,3,1,11,0.00
2012-4-6,53.2,44.7,37.5,34.2,31.5,29.0,78,60,45,30.06,29.86,4,1,9,0.00
2012-4-9,63.2,52.8,35.8,40.5,33.1,27.0,83,49,36,30.03,29.77,7,2,22,0.00
2012-4-10,53.6,51.1,48.3,33.4,31.1,29.6,52,46,40,29.84,29.81,2,0,5,0.00
2012-4-11,45.0,40.1,34.4,31.0,28.3,25.5,79,63,49,30.17,29.93,6,2,22,0.00
2012-4-12,58.5,43.2,28.4,34.8,31.0,26.7,94,66,38,30.28,30.12,4,1,14,0.00
2012-4-13,67.9,52.6,36.0,37.4,33.0,28.5,88,53,26,30.24,30.14,3,1,7,0.00
2012-4-14,72.8,55.0,38.0,56.2,43.2,33.9,96,68,37,30.19,30.00,10,1,20,0.04
2012-4-15,76.5,58.5,49.7,59.4,53.3,49.2,99,85,54,30.07,29.97,5,1,12,0.00
2012-4-16,87.1,73.8,60.7,61.2,56.9,50.9,75,57,40,30.05,29.89,6,2,23,0.00
2012-4-17,69.0,60.5,52.4,51.7,42.6,38.3,71,53,37,30.27,30.05,4,1,13,0.00
2012-4-18,54.2,52.5,50.1,53.1,49.0,40.4,98,88,61,30.19,30.05,2,0,4,0.14
2012-4-19,73.9,60.0,50.7,53.1,50.8,48.2,99,75,42,30.09,29.89,3,1,9,0.00
2012-4-20,80.0,62.9,44.3,56.0,51.1,43.2,98,69,39,29.93,29.69,4,1,10,0.00
2012-4-21,63.4,55.4,46.0,55.9,52.1,44.9,99,89,73,29.84,29.67,7,1,16,0.36
2012-4-22,46.0,43.6,40.2,44.9,42.1,38.3,97,94,88,29.83,29.65,5,1,12,0.03
2012-4-23,44.4,37.3,32.9,41.0,36.0,31.9,98,95,81,29.65,29.54,5,2,14,0.25
2012-4-24,59.5,48.5,37.0,32.2,27.7,25.0,71,46,29,29.71,29.57,8,2,21,0.00
2012-4-25,66.1,52.6,38.0,49.6,38.1,31.0,93,61,35,29.85,29.72,4,1,10,0.02
2012-4-26,58.5,53.9,50.6,57.9,53.2,49.3,99,98,92,29.76,29.57,7,1,12,0.33
2012-4-27,59.7,51.2,41.8,51.1,38.6,31.7,95,65,36,30.17,29.86,4,1,11,0.00
2012-4-28,65.7,49.2,41.7,54.2,43.7,33.7,97,82,60,30.19,29.98,4,0,11,0.24
2012-4-29,72.9,56.5,45.2,55.9,49.3,44.4,98,80,46,30.21,30.07,2,0,6,0.01
2012-4-30,86.3,67.5,46.3,66.3,56.2,45.2,97,71,40,30.12,29.88,3,1,12,0.00
2012-5-1,79.5,69.9,62.6,66.6,64.0,61.0,97,83,61,30.02,29.86,9,1,23,0.50
2012-5-2,85.9,71.5,60.9,70.5,64.7,60.6,100,82,51,30.04,29.93,5,0,15,0.95
2012-5-3,88.2,73.4,59.0,70.3,64.8,58.4,100,78,46,30.07,29.93,2,0,7,0.00
2012-5-4,74.8,67.2,62.4,69.4,65.2,62.1,100,93,80,30.07,29.86,2,0,7,1.19
2012-5-5,71.9,66.0,63.5,67.9,65.1,63.5,100,97,83,29.94,29.80,1,0,5,0.63
2012-5-6,77.2,67.2,60.9,69.0,64.8,60.9,100,93,72,29.99,29.87,3,0,5,0.00
2012-5-7,81.5,68.9,59.0,69.0,64.1,58.7,100,86,63,29.92,29.76,2,0,6,0.08
2012-5-8,70.1,65.5,61.7,67.9,63.3,60.2,99,93,78,29.82,29.72,2,0,5,0.69
2012-5-9,63.9,58.1,51.8,60.9,56.4,51.3,100,95,69,29.82,29.68,5,0,14,0.16
2012-5-10,62.9,53.7,46.6,51.4,46.7,41.7,99,80,47,29.99,29.73,3,0,9,0.00
2012-5-11,68.4,53.8,39.6,49.0,42.6,38.1,99,71,38,30.20,29.99,2,0,7,0.00
2012-5-12,75.8,58.4,41.6,56.5,49.0,40.7,98,75,44,30.28,30.14,2,0,6,0.01
2012-5-13,70.0,61.3,56.2,63.9,58.3,54.2,99,90,73,30.15,30.03,1,0,4,0.43
2012-5-14,67.1,61.5,58.9,64.5,60.8,58.6,100,97,89,30.03,29.89,1,0,6,0.44
2012-5-15,69.1,63.0,58.1,63.6,60.6,57.5,100,92,76,29.97,29.90,0,0,3,0.00
2012-5-16,77.4,64.9,53.3,64.2,58.0,53.0,100,81,49,29.96,29.85,1,0,4,0.00
2012-5-17,71.3,62.1,53.2,58.3,52.0,44.1,94,71,44,30.06,29.93,2,0,6,0.00
2012-5-18,79.3,64.1,47.6,63.1,55.2,46.5,98,76,47,30.08,29.97,2,0,6,0.00
2012-5-19,79.3,66.3,53.5,64.2,58.9,52.8,99,79,51,30.11,30.01,2,0,6,0.00
2012-5-20,82.2,69.1,54.0,63.4,59.0,53.4,99,74,44,30.15,29.97,2,0,7,0.00
2012-5-21,81.4,69.2,56.2,64.1,60.5,55.4,98,76,52,29.98,29.78,2,0,6,0.00
2012-5-22,70.5,65.4,60.0,65.1,62.1,58.6,97,90,79,29.86,29.79,1,0,4,0.00
2012-5-23,77.2,66.2,60.0,67.0,63.5,59.5,100,92,66,29.86,29.81,2,0,7,0.00
2012-5-24,79.2,68.6,59.1,69.6,64.3,59.1,100,87,64,29.94,29.85,3,0,5,0.00
2012-5-25,86.3,74.5,60.9,71.9,66.1,60.0,98,77,52,30.05,29.92,2,0,5,0.00
2012-5-26,87.0,74.6,62.6,75.1,69.0,62.1,99,84,58,30.11,29.99,1,0,3,0.00
2012-5-27,89.0,75.0,66.6,76.3,69.7,66.3,100,85,60,30.05,29.94,3,0,6,0.00
2012-5-28,88.0,75.5,62.9,73.9,68.6,62.3,99,81,56,30.00,29.84,1,0,4,0.00
2012-5-29,86.6,73.1,67.3,72.7,68.3,65.4,99,86,61,29.85,29.72,4,0,18,0.11
2012-5-30,81.6,71.0,64.3,68.3,65.5,60.7,100,85,53,29.80,29.70,5,0,10,0.00
2012-5-31,79.8,68.8,59.0,63.3,59.8,54.8,100,77,43,29.85,29.72,1,0,5,0.00
2012-6-1,71.2,64.7,58.1,67.9,61.4,54.2,98,89,70,29.77,29.53,3,0,16,0.38
2012-6-2,67.3,60.0,52.1,54.9,51.2,47.9,89,74,55,29.86,29.77,2,0,6,0.00
2012-6-3,74.9,62.5,49.0,59.2,54.1,47.7,98,76,49,29.87,29.74,3,0,10,0.00
2012-6-4,76.0,53.3,55.2,64.2,30.3,-99.9,98,66,48,29.75,29.65,3,-168,7,0.17
2012-6-5,67.3,42.7,51.8,57.8,5.6,-99.9,99,51,58,29.86,29.71,2,-268,7,0.00
2012-6-6,68.5,46.8,56.0,59.9,20.5,-99.9,99,67,67,29.98,29.84,1,-226,5,0.03
2012-6-7,74.9,48.7,52.4,61.3,16.4,-99.9,100,55,52,30.05,29.93,2,-241,9,0.00
2012-6-8,79.3,48.6,51.2,60.5,8.4,-99.9,99,45,45,30.06,29.91,2,-297,7,0.00
2012-6-9,81.2,54.2,53.2,64.0,20.3,-99.9,98,51,46,30.02,29.91,1,-250,5,0.00
2012-6-10,85.3,61.2,55.3,69.1,34.7,-99.9,99,59,47,30.05,29.94,1,0,5,0.00
2012-6-11,77.7,52.7,63.0,71.2,24.4,-99.9,96,66,75,30.00,29.91,1,-236,3,0.04
2012-6-12,81.9,57.9,68.7,73.8,31.1,-99.9,100,66,73,29.88,29.77,2,0,5,0.01
2012-6-13,77.1,49.6,58.4,68.0,7.2,-99.9,96,43,40,30.04,29.87,3,0,11,0.01
2012-6-14,82.8,65.8,48.0,61.3,54.9,46.9,97,72,43,30.10,30.02,1,0,6,0.00
2012-6-15,82.6,70.7,56.8,63.6,60.0,55.7,97,71,47,30.17,30.05,1,0,5,0.00
2012-6-16,83.7,71.0,56.6,63.8,59.7,55.8,98,71,48,30.21,30.03,1,0,5,0.00
2012-6-17,81.2,71.5,60.9,69.5,64.0,56.8,97,78,65,30.04,29.89,2,0,6,0.13
2012-6-18,77.3,69.9,64.8,72.8,68.2,64.3,100,95,76,29.98,29.87,1,0,6,0.23
2012-6-19,87.5,76.2,66.0,73.2,69.6,66.0,100,82,57,30.08,29.97,2,0,6,0.00
2012-6-20,90.0,77.3,65.5,73.4,69.5,65.1,100,80,53,30.13,29.98,1,0,5,0.00
2012-6-21,89.8,77.7,67.0,75.8,70.9,66.7,100,81,57,30.01,29.82,3,0,11,0.00
2012-6-22,87.5,74.5,68.3,72.6,69.4,65.8,98,85,54,29.86,29.79,4,0,11,0.00
2012-6-23,84.7,73.2,65.3,69.0,64.6,59.1,100,78,43,29.98,29.86,2,0,7,0.00
2012-6-24,86.3,73.8,59.0,66.6,61.8,58.2,98,70,43,29.98,29.84,3,0,10,0.00
2012-6-25,79.7,69.6,59.0,66.0,59.0,48.6,97,72,45,29.88,29.77,3,0,9,0.00
2012-6-26,75.2,64.0,49.1,53.6,50.5,46.6,94,64,44,29.96,29.86,3,1,12,0.00
2012-6-27,82.7,66.5,49.4,59.8,54.6,48.0,97,70,40,30.02,29.89,3,0,9,0.00
2012-6-28,95.0,76.2,54.9,69.7,62.0,53.8,97,66,35,29.93,29.74,4,0,9,0.00
2012-6-29,98.3,86.6,74.2,76.9,70.5,63.8,80,60,48,29.81,29.65,3,0,7,0.00
2012-6-30,92.5,76.7,63.1,75.9,69.5,62.8,100,81,54,29.89,29.75,2,0,6,0.00
2012-7-1,92.2,79.2,67.2,75.1,71.2,66.2,100,80,49,29.97,29.80,9,0,26,0.43
2012-7-2,88.4,75.1,64.0,72.4,68.0,63.7,100,81,51,30.01,29.91,2,0,6,0.00
2012-7-3,90.8,73.6,65.7,75.1,69.5,65.2,100,88,56,29.96,29.85,5,0,21,0.09
2012-7-4,92.6,79.1,66.1,75.7,71.3,65.8,100,80,54,29.94,29.80,2,0,6,0.00
2012-7-5,89.1,79.0,70.3,74.8,71.6,68.7,98,79,52,29.94,29.83,5,0,16,0.00
2012-7-6,94.4,81.0,68.6,77.1,72.3,67.6,98,77,54,29.96,29.85,2,0,5,0.00
2012-7-7,97.3,83.5,71.2,77.1,74.0,70.7,100,76,46,29.93,29.81,1,0,6,0.00
2012-7-8,98.0,82.1,71.7,77.2,73.8,71.1,98,78,49,29.88,29.77,4,0,14,0.00
2012-7-13,72.9,65.5,60.2,68.4,63.8,59.3,100,94,65,30.17,30.08,1,0,6,1.06
2012-7-14,88.1,75.6,65.8,74.3,69.9,65.8,100,84,59,30.11,29.99,2,0,6,0.04
2012-7-15,87.2,77.7,67.7,74.5,71.0,67.1,100,81,62,30.09,29.96,3,0,13,0.17
2012-7-16,89.1,76.8,67.9,76.3,71.4,67.9,100,85,59,30.01,29.85,2,0,7,0.01
2012-7-17,92.2,78.8,66.7,76.5,72.1,66.2,100,82,56,29.93,29.80,1,0,4,0.00
2012-7-18,91.6,76.1,69.8,78.8,72.8,66.9,99,91,63,29.95,29.79,9,0,22,0.62
2012-7-19,89.0,75.0,68.8,76.2,71.3,68.7,100,90,62,29.98,29.81,4,0,5,0.12
2012-7-20,74.1,70.9,68.5,72.9,70.6,68.5,100,99,95,29.89,29.80,0,0,3,0.82
2012-7-21,79.3,72.7,69.3,71.8,70.3,69.3,100,93,76,30.00,29.87,2,0,6,0.04
2012-7-22,84.7,73.7,64.9,70.4,67.7,64.9,100,84,58,30.11,30.02,2,0,5,0.00
2012-7-23,84.3,74.1,66.7,77.3,71.7,66.4,100,93,76,30.08,29.92,1,0,10,0.09
2012-7-24,82.1,78.6,76.3,76.8,74.1,73.3,92,86,84,29.91,29.82,1,0,6,0.00
2012-7-25,85.9,76.2,68.6,75.0,70.3,68.0,99,83,60,29.92,29.78,1,0,4,0.00
2012-7-26,75.6,73.9,72.7,73.3,72.5,71.7,98,95,92,29.77,29.72,0,0,2,1.17
2012-7-27,82.1,73.1,68.3,75.8,71.2,67.7,100,94,77,29.88,29.73,0,0,3,1.08
2012-7-28,80.9,72.2,67.1,71.4,68.4,65.9,99,89,68,29.97,29.82,1,0,4,0.20
2012-7-29,80.6,71.3,65.5,69.0,66.5,64.6,100,86,62,30.04,29.94,1,0,6,0.01
2012-7-30,81.7,70.2,62.6,75.0,67.3,62.3,100,91,70,29.99,29.88,2,0,5,0.30
2012-7-31,85.8,74.2,65.0,74.2,69.6,65.0,100,87,67,29.91,29.79,1,0,4,0.00
2012-8-1,84.0,73.4,63.6,74.5,69.3,63.6,100,88,68,29.87,29.76,1,0,4,0.00
2012-8-2,87.2,75.7,66.5,73.9,70.1,66.5,100,85,56,29.86,29.80,1,0,6,0.00
2012-8-3,88.0,75.8,66.7,76.3,70.9,66.4,100,86,63,29.96,29.83,2,0,6,0.00
2012-8-4,72.0,71.8,71.5,70.6,70.5,70.3,96,96,95,29.95,29.94,0,0,0,0.00
2012-8-5,82.0,76.1,69.3,76.1,71.4,67.9,100,86,73,30.06,29.96,3,0,16,1.13
2012-8-6,81.1,73.7,69.1,74.8,71.7,69.1,100,94,75,30.07,29.94,0,0,3,0.05
2012-8-7,84.0,73.7,68.1,72.7,69.8,64.9,100,89,54,29.97,29.89,0,0,1,0.00
2012-8-16,82.7,70.2,60.1,69.0,64.5,60.1,100,84,57,30.01,29.84,1,0,5,0.00
2012-8-17,66.8,65.9,65.0,64.7,64.2,63.5,95,94,93,29.89,29.86,0,0,0,0.00
2012-8-18,76.7,67.9,62.0,66.1,63.2,60.8,100,86,60,29.92,29.81,1,0,5,0.01
2012-8-19,78.8,64.8,59.3,67.0,62.4,59.0,100,93,62,29.87,29.78,1,0,6,0.71
2012-8-20,76.1,66.8,60.5,66.4,62.3,59.1,100,87,58,29.94,29.81,2,0,7,0.01
2012-8-21,79.3,66.2,55.4,63.1,58.7,55.1,100,80,45,30.04,29.94,1,0,4,0.00
2012-8-22,80.9,68.6,57.2,64.2,59.9,56.9,100,77,48,30.11,30.02,1,0,4,0.00
2012-8-23,83.9,66.6,57.8,68.0,61.6,57.5,100,86,48,30.13,30.03,1,0,6,0.00
2012-8-24,85.3,70.6,60.0,68.2,64.3,59.7,100,83,53,30.12,30.00,1,0,4,0.00
2012-8-25,83.1,69.7,60.4,69.5,63.4,60.1,100,83,50,30.14,30.05,1,0,6,0.00
2012-8-26,82.9,67.8,58.3,68.5,62.2,57.7,100,85,58,30.14,30.01,1,0,4,0.00
2012-10-6,56.7,34.4,44.3,55.6,-2.2,-99.9,98,58,67,30.09,29.79,2,0,5,0.00
2012-10-7,51.9,31.3,39.8,47.9,-4.7,-99.9,98,58,76,30.18,30.00,2,0,7,0.00
2012-10-8,43.1,4.8,41.9,42.8,-84.0,-99.9,99,11,99,30.25,30.12,0,0,2,0.01
2012-10-9,54.7,30.3,43.9,47.2,-11.4,-99.9,98,52,75,30.17,30.00,1,0,4,0.00
2012-10-10,59.0,36.7,43.6,52.0,2.2,-99.9,98,57,70,30.16,29.92,4,1,10,0.00
2012-10-11,60.3,30.1,34.2,41.4,-17.7,-99.9,98,39,43,30.32,30.11,1,0,5,0.00
2012-10-12,59.9,30.0,35.9,45.7,-16.2,-99.9,98,44,57,30.36,30.15,3,0,7,0.01
2012-10-13,71.8,52.3,37.5,52.1,44.2,36.8,100,77,47,30.35,30.09,2,0,6,0.00
2012-10-14,78.2,60.0,48.6,60.7,52.9,47.3,97,80,52,30.10,29.88,2,0,10,0.00
2012-10-15,70.3,59.5,48.5,61.5,53.1,44.2,95,80,59,29.90,29.68,6,1,16,0.10
2012-10-16,60.9,48.8,42.2,45.7,42.9,41.0,98,82,51,29.99,29.86,2,0,6,0.00
2012-10-17,74.4,53.4,38.1,54.0,43.9,37.3,99,75,37,29.93,29.73,2,0,6,0.00
2012-10-18,71.9,60.2,51.5,60.1,50.3,46.6,99,72,53,29.78,29.55,6,1,15,0.33
2012-10-19,67.3,55.6,45.0,54.6,45.0,39.9,100,73,39,29.75,29.56,6,1,13,0.01
2012-10-20,55.5,50.7,46.3,45.7,43.1,40.3,91,76,60,29.96,29.71,3,0,14,0.00
2012-10-21,60.3,47.8,37.9,45.7,41.3,36.6,98,80,53,30.15,29.96,2,0,6,0.00
2012-10-22,76.7,52.5,37.3,56.1,45.4,36.3,99,81,48,30.21,30.07,2,0,6,0.00
2012-10-23,77.4,61.2,50.1,57.9,53.9,49.3,98,80,48,30.10,30.00,0,0,0,0.00
2012-10-24,79.1,63.2,53.3,58.4,54.5,52.2,97,76,43,30.15,30.01,0,0,0,0.00
2012-10-25,56.0,51.0,47.8,52.5,49.5,47.0,97,94,88,30.08,30.03,0,0,0,0.00
2012-10-26,79.0,66.7,53.4,59.6,55.3,51.1,93,69,47,30.05,29.88,0,0,0,0.00
2012-10-27,61.4,53.0,47.0,55.2,50.8,46.1,97,92,80,29.95,29.85,1,0,7,0.06
2012-10-28,47.2,46.0,44.3,46.5,45.2,43.5,98,97,96,29.94,29.79,1,0,5,0.28
2012-10-29,43.0,38.4,35.0,42.2,37.4,34.0,98,96,95,29.82,29.34,3,1,12,0.83
2012-10-30,34.7,32.4,31.7,33.7,31.8,31.2,98,97,96,29.34,29.25,3,1,10,0.01
2012-10-31,38.3,35.6,32.4,37.2,35.0,31.9,98,97,95,29.77,29.55,2,1,8,0.00
2012-11-1,44.2,38.0,35.6,40.8,36.8,34.9,98,95,86,29.84,29.75,2,0,7,0.00
2012-11-2,49.8,41.7,36.5,37.0,33.4,30.4,98,73,53,30.02,29.78,6,1,16,0.00
2012-11-3,45.8,40.8,37.5,37.0,33.2,30.1,94,74,63,30.15,30.02,3,1,7,0.00
2012-11-4,42.4,39.0,38.0,36.3,34.2,32.5,92,83,69,30.09,30.03,2,0,9,0.00
2012-11-5,45.8,37.2,29.4,31.9,29.7,27.1,92,75,56,30.16,30.08,2,0,7,0.00
2012-11-6,55.4,38.8,26.6,37.0,31.1,25.4,97,77,46,30.10,29.89,3,0,7,0.00
2012-11-7,47.1,37.1,28.4,37.8,31.4,27.3,98,81,58,30.02,29.86,2,0,5,0.00
2012-11-8,47.8,35.1,24.1,31.9,28.4,22.6,97,78,50,30.20,30.02,3,1,9,0.00
2012-11-9,57.7,39.8,25.9,38.1,31.8,24.4,96,76,47,30.31,30.17,2,0,6,0.00
2012-11-10,72.4,49.5,31.2,45.2,36.9,29.9,96,68,30,30.31,30.18,3,0,10,0.00
2012-11-11,77.0,55.9,36.2,49.9,40.4,34.9,96,63,25,30.38,30.18,6,2,15,0.00
2012-11-12,71.5,61.1,38.8,55.5,50.4,36.2,94,69,54,30.32,29.96,10,4,20,0.00
2012-11-13,43.6,36.2,28.5,37.5,28.9,25.9,94,76,55,30.50,30.32,5,1,14,0.00
2012-11-14,45.5,33.6,24.3,31.6,27.4,22.8,96,80,54,30.51,30.33,3,0,5,0.00
2012-11-15,52.2,37.2,26.1,34.7,30.0,24.7,97,78,49,30.34,30.24,3,0,6,0.00
2012-11-16,51.5,37.3,26.5,36.1,30.1,25.3,97,78,49,30.46,30.29,4,0,7,0.00
2012-11-17,58.1,38.9,25.4,36.0,29.9,23.9,96,74,40,30.54,30.43,2,0,5,0.00
2012-11-18,62.6,41.3,25.7,37.2,30.7,24.2,96,71,35,30.51,30.36,2,0,6,0.00
2012-11-19,57.5,40.7,27.2,36.1,31.2,25.7,95,72,40,30.39,30.17,1,0,4,0.00
2012-11-20,58.5,42.7,33.7,38.5,34.1,31.4,92,74,44,30.17,30.05,2,0,6,0.00
2012-11-21,61.0,43.0,29.4,39.5,31.8,27.9,96,69,32,30.22,30.10,2,0,6,0.00
2012-11-22,64.8,43.1,28.0,38.7,32.1,26.2,95,70,34,30.27,30.05,2,0,5,0.00
2012-11-23,61.4,42.8,32.1,48.2,36.9,25.2,96,80,56,30.06,29.85,8,2,17,0.00
2012-11-24,32.7,30.0,28.3,26.0,23.6,20.9,90,77,67,30.16,30.05,7,1,18,0.00
2012-11-25,47.6,36.1,28.9,26.8,22.8,20.1,82,61,35,30.12,29.91,3,1,12,0.00
2012-11-26,54.7,44.5,30.0,39.7,32.4,26.3,88,65,41,30.18,30.02,3,0,5,0.00
2012-11-27,43.2,38.2,35.7,40.1,36.1,32.8,96,92,85,30.29,30.12,6,0,6,0.00
2012-11-28,42.5,34.9,26.8,33.5,30.0,24.6,94,83,61,30.42,30.26,3,0,7,0.00
2012-11-29,50.4,33.1,21.8,32.4,25.7,20.1,95,77,42,30.48,30.29,2,0,6,0.00
2012-11-30,59.0,39.6,26.6,41.0,31.9,24.4,94,77,44,30.36,30.20,3,0,9,0.00
2012-12-1,62.8,45.3,31.0,47.8,39.1,29.6,99,80,55,30.36,30.22,2,0,7,0.00
2012-12-2,64.5,49.8,37.1,54.0,46.2,36.1,99,89,58,30.23,30.08,4,0,13,0.00
2012-12-3,67.9,57.1,48.2,59.6,54.6,47.7,100,92,73,30.22,30.11,3,0,6,0.00
2012-12-4,68.7,54.5,41.6,57.7,51.1,41.1,100,90,65,30.19,30.00,9,1,16,0.00
2012-12-5,52.3,44.9,32.9,50.3,40.4,30.3,98,85,63,30.29,30.08,7,1,13,0.00
2012-12-6,58.1,41.4,26.3,45.5,35.0,25.1,97,80,53,30.28,30.02,1,0,4,0.00
2012-12-7,55.2,51.1,48.2,53.8,49.8,45.7,99,95,80,30.02,29.84,2,0,6,0.00
2012-12-8,61.3,56.7,53.2,56.3,53.9,50.1,98,90,80,29.97,29.82,3,0,9,0.00
2012-12-9,59.6,54.8,51.1,57.6,54.0,50.8,100,97,87,30.01,29.75,2,0,5,0.00
2012-12-10,63.2,53.2,36.9,55.6,50.3,35.8,99,90,74,29.83,29.52,10,1,20,0.00
2012-12-11,36.9,27.5,33.1,35.9,4.8,-99.9,96,72,82,30.23,29.82,3,-180,7,0.00
2012-12-12,41.1,14.8,27.8,33.1,-46.3,-99.9,98,33,66,30.42,30.23,3,-504,6,0.00
2012-12-13,49.5,16.8,25.1,36.8,-46.1,-99.9,98,29,38,30.45,30.25,1,-494,4,0.00
2012-12-14,53.4,20.1,23.8,37.1,-39.7,-99.9,96,29,39,30.38,30.18,3,-460,9,0.00
2012-12-15,55.9,22.8,30.1,42.6,-36.0,-99.9,96,30,40,30.18,29.89,2,-452,5,0.01
2012-12-16,59.9,54.6,47.7,53.8,48.8,39.1,95,81,60,29.89,29.70,4,1,12,0.00
2012-12-17,56.0,50.0,46.0,52.2,48.3,44.3,98,94,81,29.75,29.51,4,0,17,0.00
2012-12-18,47.1,42.5,34.9,44.6,39.6,32.5,94,89,83,29.87,29.55,5,2,14,0.00
2012-12-19,48.6,41.9,33.0,39.6,36.2,31.5,96,81,67,30.11,29.81,3,1,7,0.00
2012-12-20,52.5,43.0,31.4,43.9,38.2,30.4,98,84,54,30.07,29.39,8,3,22,0.00
2012-12-21,38.7,29.9,26.4,35.2,26.7,24.2,99,88,76,29.89,29.48,6,4,20,0.00
2012-12-22,29.5,27.5,19.3,27.3,23.8,17.3,95,86,76,30.18,29.89,5,2,13,0.00
2012-12-23,49.7,30.1,14.5,32.5,23.2,12.6,94,78,49,30.15,29.92,3,0,10,0.00
2012-12-24,44.4,33.1,25.6,44.1,32.2,24.4,99,96,92,29.98,29.77,2,0,5,0.00
2012-12-25,71.9,40.5,35.5,46.2,36.2,32.0,97,85,37,30.12,29.91,3,0,9,0.03
2012-12-26,50.7,40.7,34.8,41.6,37.3,31.8,97,88,63,30.04,29.42,12,1,15,0.94
2012-12-27,38.1,31.2,29.7,36.0,28.6,26.2,94,90,84,30.16,29.63,7,2,17,0.01
2012-12-28,37.4,33.1,30.9,32.4,30.0,28.2,92,88,80,30.15,29.87,2,0,5,0.02
2012-12-29,38.8,34.7,30.9,37.3,32.9,28.5,97,93,88,30.02,29.66,6,2,16,0.36
2012-12-30,31.5,27.8,21.6,29.8,24.3,19.6,94,87,79,30.44,30.02,6,1,13,0.00
2012-12-31,38.0,29.1,18.8,30.1,22.7,17.1,94,79,56,30.40,30.09,1,0,5,0.04
2013-1-1,37.6,34.3,33.3,34.4,32.8,25.6,98,94,62,30.11,29.97,1,0,6,0.11